Weather in Arkhangel

Russia / Ivanovo Oblast     57°06′22″N   40°19′21″E
temp.,
°C
wind,
m/s
gust,
m/s
humid.,
%
clouds,
%
prec.,
mm/h
press.,
hPa
HPBL,
m
4 march, thu
thu400:00−2wsw51194100 0.1 1003719
03:00−1wsw61294100 0.6 999791
06:00+1w71497100 1.4 9951057
09:000nw8138798 1.8 9941091
12:00−1wnw6107977 0.1 9961101
15:00−1nw588087 0.2 998999
18:00−6nw259060 0.0 999149
21:00−9nw239330 0.0 100049
5 march, fri
fri500:00−11nw22940 0.0 100221
03:00−12wnw22940 0.0 100323
06:00−12w23950 0.0 100432
09:00−9w249417 0.1 1005190
12:00−5wnw358896 0.1 1006545
15:00−4wnw478298 0.5 1008939
18:00−7nw3795100 0.4 1009333
21:00−13nnw398872 0.4 1013218
6 march, sat
sat600:00−15nw22920 0.0 101420
03:00−16w22920 0.0 101620
06:00−16w229226 0.0 101620
09:00−13wnw259259 0.0 1016245
12:00−10nw2485100 0.0 1016578
15:00−9wnw3482100 0.1 1015784
18:00−13w229180 0.0 101521
21:00−14sw239340 0.0 101449
7 march, sun
sun700:00−14ssw3109112 0.0 1011228
03:00−12ssw5129120 0.0 1008340
06:00−9ssw61492100 0.2 1003686
09:00−7ssw71489100 0.6 999893
12:00−5ssw71392100 0.9 9941086
15:00−4ssw61293100 2.5 992963
18:00−7nw61190100 2.1 9931115
21:00−11w388283 2.3 995180
8 march, mon
mon800:00−10sw3119560 0.3 995509
03:00−9ssw3119080 0.4 994388
06:00−8ssw41093100 0.1 993494
09:00−7wsw2594100 0.6 993442
12:00−7wnw4792100 0.7 995586
15:00−8nw61082100 1.1 999795
18:00−10wnw4119099 0.0 1002549
21:00−10nw4109299 0.1 1006585